Weather History for KDVT - July, 2013

Change the Weather History Date:

Tuesday, July 16, 2013

  Actual Average Record
Temperature  
Mean Temperature 90 °F -  
Max Temperature 97 °F 101 °F 114 °F (1998)
Min Temperature 82 °F 80 °F 73 °F (2001)
Cooling Degree Days 24    
Growing Degree Days 40 (Base 50)    
Moisture  
Dew Point 63 °F    
Average Humidity 42    
Maximum Humidity 54    
Minimum Humidity 31    
Precipitation  
Precipitation 0.00 in - - ()
Sea Level Pressure  
Sea Level Pressure 29.81 in    
Wind  
Wind Speed 10 mph (ESE)    
Max Wind Speed 16 mph    
Max Gust Speed 22 mph    
Visibility 10 miles    
Events Rain , Thunderstorm    
Averages and records for this station are not official NWS values.
T = Trace of Precipitation, MM = Missing Value Source: NWS Daily Summary

Daily Weather History Graph

Daily Weather History Graph

Search for Another Location

Airport or City:

Trip Planner

Search our weather history database for the weather conditions in past years. The results will help you decide how hot, cold, wet, or windy it might be!

Date:

Astronomy

Jul. 16, 2013 Rise Set
Actual Time 5:29 AM MST 7:38 PM MST
Civil Twilight 5:01 AM MST 8:06 PM MST
Nautical Twilight 4:26 AM MST 8:41 PM MST
Astronomical Twilight 3:49 AM MST 9:18 PM MST
Moon 1:30 PM MST (7/16) No Moon Set
Length of Visible Light 15h 05m
Length of Day
14h 09m
First Quarter, 57% of the Moon is Illuminated
Jul 16
First Quarter
Jul 22
Full
Jul 29
Last Quarter
Aug 6
New
Aug 14
First Quarter

Hourly Weather History & Observations

Time (MST) Temp. Heat Index Dew Point Humidity Pressure Visibility Wind Dir Wind Speed Gust Speed Precip Events Conditions
12:53 AM 91.9 °F 91.5 °F 60.1 °F 34% 29.70 in 10.0 mi ESE 12.7 mph - N/A   Mostly Cloudy
1:53 AM 88.0 °F 88.7 °F 63.0 °F 43% 29.73 in 10.0 mi SE 11.5 mph - N/A   Mostly Cloudy
2:53 AM 86.0 °F 87.3 °F 64.0 °F 48% 29.74 in 10.0 mi SE 16.1 mph - N/A   Scattered Clouds
3:53 AM 82.9 °F 84.6 °F 64.9 °F 54% 29.75 in 10.0 mi SE 12.7 mph - N/A   Clear
4:53 AM 84.0 °F 85.4 °F 64.0 °F 51% 29.76 in 10.0 mi SSE 8.1 mph - N/A   Clear
5:53 AM 84.0 °F 85.4 °F 64.0 °F 51% 29.79 in 10.0 mi SE 4.6 mph - N/A   Clear
6:53 AM 86.0 °F 87.3 °F 64.0 °F 48% 29.81 in 10.0 mi Calm Calm - N/A   Clear
7:53 AM 87.1 °F 88.3 °F 64.0 °F 46% 29.83 in 10.0 mi South 6.9 mph - N/A   Clear
8:53 AM 89.1 °F 90.0 °F 63.0 °F 42% 29.83 in 10.0 mi SSE 9.2 mph - N/A   Clear
9:53 AM 90.0 °F 90.6 °F 63.0 °F 40% 29.83 in 10.0 mi SSE 10.4 mph - N/A   Clear
10:53 AM 93.0 °F 94.2 °F 63.0 °F 37% 29.83 in 10.0 mi SSE 8.1 mph 18.4 mph N/A   Clear
11:53 AM 95.0 °F 95.6 °F 62.1 °F 33% 29.82 in 10.0 mi SE 8.1 mph - N/A   Clear
12:53 PM 95.0 °F 95.6 °F 62.1 °F 33% 29.80 in 10.0 mi SSE 9.2 mph 20.7 mph N/A   Clear
1:53 PM 96.1 °F 96.9 °F 62.1 °F 32% 29.80 in 10.0 mi Variable 6.9 mph - N/A   Clear
2:53 PM 97.0 °F 97.8 °F 62.1 °F 31% 29.78 in 10.0 mi ESE 8.1 mph 19.6 mph N/A   Clear
3:53 PM 97.0 °F 97.8 °F 62.1 °F 31% 29.76 in 10.0 mi ESE 8.1 mph 17.3 mph N/A   Clear
4:53 PM 97.0 °F 97.8 °F 62.1 °F 31% 29.76 in 10.0 mi ESE 9.2 mph 17.3 mph N/A   Clear
5:53 PM 93.9 °F 94.0 °F 61.0 °F 33% 29.78 in 10.0 mi North 13.8 mph - N/A   Overcast
6:32 PM 91.4 °F 93.2 °F 64.4 °F 41% 29.88 in 10.0 mi NNE 9.2 mph - N/A Thunderstorm Thunderstorm
6:53 PM 89.1 °F 89.3 °F 62.1 °F 40% 29.81 in 10.0 mi East 6.9 mph 16.1 mph N/A   Partly Cloudy
7:53 PM 84.9 °F 86.1 °F 64.0 °F 49% 29.83 in 10.0 mi ENE 11.5 mph 21.9 mph N/A   Clear
8:53 PM 86.0 °F 86.3 °F 62.1 °F 44% 29.86 in 10.0 mi NE 10.4 mph - N/A   Clear
9:53 PM 82.0 °F 83.4 °F 64.0 °F 54% 29.90 in 10.0 mi East 9.2 mph 18.4 mph N/A   Clear
10:53 PM 82.9 °F 84.6 °F 64.9 °F 54% 29.89 in 10.0 mi NE 6.9 mph - 0.00 in Rain Light Rain
11:53 PM 84.0 °F 85.4 °F 64.0 °F 51% 29.89 in 10.0 mi Calm Calm - 0.00 in   Partly Cloudy